Content
SEND FEEDBACK

Daily
Averages
Monthly
Summary
United States of America

BOSTON, MASSACHUSETTS


Home > North America > United States > Massachusetts
Elevation: 4 feet     Latitude: 42 22N     Longitude: 071 02W

WEATHER
 
SELECT A DAY
Number of Records: 205,319;   Date Range: 1/1/95 - 10/20/14
 
SHARE

PRINT THIS DATA

[ ← Previous Day ]
WEATHER ALMANAC - OCTOBER 22, 2013
[ Next Day → ]
[ °C ]   °F
Weather ElementAverageHighLow
Temperature57.9 °F70 °F (1:54 pm)48.9 °F (3:54 am)
Dewpoint44.5 °F50 °F (8:54 am)35.1 °F (11:54 pm)
Humidity63 %89 % (6:54 am)41 % (1:54 pm)
Barometer29.82 in29.98 in (1:54 am)29.71 in (3:54 pm)
Wind Speed10.4 mph17.3 mph (8:54 pm)
Wind Gust21.9 mph (8:54 pm)
Weather ElementAverage
Visibility10 mi
Wind DirectionWSW (240.9 °)

Weather ElementTotal
Precipitation---
Heating Degree Days5.6 (Base 65)
Growing Degree Days9.5 (Base 50)
Averaged from 23 records on October 22, 2013
WEATHER CONDITIONS BREAKOUT
WIND DIRECTION BREAKOUT
WEATHER BY HOUR - OCTOBER 22, 2013
[ °C ]   °F
Local TimeTemperatureDewpointHumidityBarometerVisibilityWind DirectionWind SpeedGust SpeedPrecipitationEventsConditions
1:54 AM51.1 °F43.0 °F74 %29.98 in10.0 miSSW (200°)8.1 mphClear
2:54 AM51.1 °F44.1 °F77 %29.97 in10.0 miSSW (210°)6.9 mphClear
3:54 AM48.9 °F44.1 °F83 %29.95 in10.0 miSSW (200°)6.9 mphClear
4:54 AM48.9 °F44.1 °F83 %29.94 in10.0 miSouth (180°)4.6 mphClear
5:54 AM50.0 °F46.0 °F86 %29.93 in9.0 miSSW (200°)5.8 mphMostly Cloudy
6:54 AM50.0 °F46.9 °F89 %29.90 in10.0 miSouth (180°)10.4 mphScattered Clouds
7:54 AM52.0 °F48.0 °F86 %29.88 in10.0 miSouth (180°)10.4 mphScattered Clouds
8:54 AM55.0 °F50.0 °F83 %29.88 in10.0 miSouth (190°)9.2 mphScattered Clouds
9:54 AM59.0 °F50.0 °F72 %29.86 in10.0 miSouth (190°)6.9 mphScattered Clouds
10:54 AM64.0 °F50.0 °F60 %29.82 in10.0 miSSW (210°)9.2 mphScattered Clouds
11:54 AM64.9 °F48.0 °F54 %29.80 in10.0 miSW (230°)13.8 mphScattered Clouds
12:54 PM66.9 °F45.0 °F45 %29.77 in10.0 miSW (230°)13.8 mphMostly Cloudy
1:54 PM70.0 °F45.0 °F41 %29.74 in10.0 miWSW (240°)15.0 mphMostly Cloudy
2:54 PM68.0 °F45.0 °F43 %29.72 in10.0 miWSW (250°)9.2 mphMostly Cloudy
3:54 PM66.9 °F45.0 °F45 %29.71 in10.0 miWest (270°)9.2 mphMostly Cloudy
4:54 PM66.0 °F44.1 °F45 %29.71 in10.0 miWest (260°)10.4 mphOvercast
5:54 PM64.0 °F45.0 °F50 %29.71 in10.0 miWNW (290°)12.7 mph18.4 mph0.00 inRainLight Rain
6:54 PM62.1 °F46.0 °F56 %29.72 in10.0 miWest (280°)11.5 mph0.00 inMostly Cloudy
7:54 PM60.1 °F46.0 °F60 %29.73 in10.0 miWNW (290°)13.8 mphMostly Cloudy
8:54 PM55.9 °F39.0 °F53 %29.75 in10.0 miNW (320°)17.3 mph21.9 mphClear
9:54 PM54.0 °F37.0 °F53 %29.78 in10.0 miNW (320°)12.7 mph20.7 mphClear
10:54 PM52.0 °F37.0 °F57 %29.78 in10.0 miNW (310°)11.5 mphClear
11:54 PM51.1 °F35.1 °F54 %29.78 in10.0 miNW (310°)10.4 mph20.7 mphClear
Hourly data recorded from KBOS, located miles away from Boston, Massachusetts







STORIES FROM OUR PARTNERS